Weather in Trubny

Russia / Astrakhan Oblast     46°23′11″N   48°32′35″E
temp.,
°C
wind,
m/s
gust,
m/s
humid.,
%
clouds,
%
prec.,
mm/h
press.,
hPa
HPBL,
m
1 august, sun
sun101:00+23s225917 0.0 101223
04:00+22ssw225975 0.0 101211
07:00+25sse114781 0.0 101275
10:00+33ese342596 0.0 10121177
13:00+37sse441748 0.0 10113009
16:00+35s652495 0.0 10101335
19:00+35s432241 0.0 10101304
22:00+27ssw343543 0.0 101150
2 august, mon
mon201:00+25sw22395 0.0 101116
04:00+24wnw0038100 0.0 101111
07:00+28ne222913 0.0 101270
10:00+36ese34165 0.0 10121048
13:00+40se551010 0.0 10114218
16:00+40se75999 0.0 10103856
19:00+36se5612100 0.0 1011423
22:00+28s332624 0.0 101127
3 august, tue
tue301:00+26s333373 0.0 101132
04:00+24sw113712 0.0 101111
07:00+29ne222687 0.0 101254
10:00+37e231142 0.0 1011882
13:00+41se44833 0.0 10104768
16:00+41sse74823 0.0 10094825
19:00+38sse68102 0.0 1009728
22:00+28ssw34221 0.0 101141
4 august, wed
wed401:00+27sw33250 0.0 101024
04:00+25sw33290 0.0 101117
07:00+28ssw22290 0.0 101156
10:00+37s34130 0.0 1011987
13:00+42ssw6684 0.0 10094171
16:00+42ssw7684 0.0 10094503
19:00+38s78125 0.0 1009756
22:00+29sw462695 0.0 101185
5 august, thu
thu501:00+27w452936 0.0 101153
04:00+26nw353894 0.0 101079
07:00+29n373925 0.0 1011215
10:00+34nnw892891 0.0 10121521
13:00+32n7831100 0.0 10131416
16:00+30wnw4637100 0.0 1013690
19:00+32nnw66320 0.0 10121454
22:00+27n33400 0.0 101332